Wetbulb
55.38 51.55 48.61 46.73 38.36 35.35 32.44 38.23 40.36 40.05 39.65 44.16 46.30 45.91 46.46 48.32 49.32 44.08 57.60 64.75 66.98 66.91 67.94 68.24 69.04 68.62 68.08 67.70 67.36 67.05 67.00 67.33 66.54 66.34 66.25 66.66 67.18 67.52 67.92 68.57 69.01 69.38 69.55 69.29 68.48 67.62 67.68 67.78 67.65
51.95 50.30 46.74 41.86 32.87 28.74 31.13 37.65 39.31 40.44 43.95 45.04 46.95 45.56 44.95 46.80 52.48 54.79 56.78 65.60 66.02 65.75 66.27 66.51 67.58 67.74 67.13 66.77 66.41 66.05 65.80 65.20 64.91 64.93 65.07 65.08 64.67 65.37 66.25 66.92 66.88 66.90 67.00 66.76 66.37 65.74 64.98 64.80 64.72
49.33 49.54 41.72 36.88 31.84 28.81 31.97 36.42 39.00 42.28 45.45 45.15 43.32 45.83 44.53 47.16 53.22 55.05 59.25 64.93 64.56 63.87 64.85 65.46 66.91 66.72 66.11 65.57 65.38 65.19 64.63 64.20 64.19 64.16 64.48 63.89 63.69 63.66 63.55 63.38 63.62 63.68 63.87 63.56 63.08 62.37 61.69 61.53 61.62
45.67 43.85 41.60 34.30 32.02 35.89 37.11 36.49 40.81 41.96 43.01 44.36 45.61 41.58 44.02 48.11 54.89 58.08 62.07 63.14 62.31 62.52 63.92 65.42 66.45 65.98 65.24 64.79 64.65 64.32 63.81 63.51 63.10 63.15 63.03 62.56 62.10 62.21 61.82 61.65 61.55 61.68 61.62 61.55 60.74 60.02 59.27 59.07 59.14
43.37 40.41 33.29 30.91 33.60 38.05 39.12 40.78 42.07 41.28 42.14 42.60 45.07 43.08 42.75 50.36 58.42 60.36 60.51 61.38 60.33 61.26 62.79 63.88 65.54 65.35 64.17 64.22 63.80 63.39 63.02 62.42 61.97 61.71 61.60 60.91 60.75 60.64 60.10 60.00 60.03 59.93 59.76 59.32 58.62 57.96 57.37 57.14 57.35
38.43 38.68 30.92 30.17 33.53 39.15 40.94 41.90 41.52 40.77 40.83 42.06 42.88 42.33 42.17 52.14 57.35 58.83 59.77 58.83 59.50 59.61 60.97 61.75 62.29 63.32 63.64 63.58 62.80 62.29 61.89 61.10 60.65 60.15 59.71 59.47 59.15 58.94 58.58 58.37 58.43 58.09 57.43 56.97 56.43 55.91 55.42 55.24 55.19
36.00 34.13 30.61 31.34 34.15 36.86 40.62 42.48 39.93 40.69 40.45 41.30 44.12 40.93 42.67 48.87 55.83 57.66 57.84 58.51 58.48 58.85 58.66 58.88 59.34 60.53 61.28 61.77 61.46 61.04 60.12 59.46 58.83 58.37 57.36 56.57 56.30 56.26 56.08 55.77 55.73 55.47 55.26 54.86 54.35 54.09 53.72 53.45 53.49
38.43 36.26 32.07 33.60 35.33 36.74 42.07 40.31 41.54 41.49 41.24 42.86 44.84 40.53 39.88 46.77 55.08 56.70 56.97 57.41 57.34 57.45 57.10 56.41 54.83 54.13 53.35 54.77 58.60 58.49 57.88 57.04 56.10 54.90 53.94 53.72 53.24 52.96 52.07 51.40 52.22 52.17 52.25 52.57 52.45 52.61 52.69 53.20 53.92
40.01 31.76 30.88 34.14 36.06 39.40 40.55 38.12 39.94 40.60 41.09 40.02 42.89 42.09 45.61 50.79 55.30 54.17 53.83 54.84 55.42 56.06 55.42 54.34 53.65 52.58 51.46 51.27 53.43 54.93 54.98 53.94 52.68 51.66 52.40 51.69 45.85 46.14 45.74 48.94 49.94 50.35 50.64 50.29 52.04 51.63 52.20 51.97 50.90
36.50 31.29 34.05 39.20 39.92 40.31 41.53 39.61 40.04 38.94 38.93 38.08 40.87 47.47 50.25 53.05 53.64 52.87 53.26 52.83 52.97 53.13 53.01 53.55 52.94 51.82 50.76 52.04 48.86 47.73 48.52 46.37 45.75 45.08 45.35 45.74 43.12 43.07 45.26 46.91 48.58 48.21 49.66 51.01 51.24 51.35 50.60 48.06 44.04
37.43 34.55 39.55 40.69 42.39 42.05 40.56 39.86 40.30 38.74 36.13 39.35 40.09 45.14 48.59 49.04 50.20 51.87 51.95 52.89 53.07 52.66 52.75 52.15 51.39 51.14 49.18 48.18 46.54 44.79 43.75 43.65 43.42 43.50 44.13 43.78 43.92 43.15 42.63 42.48 42.52 42.18 46.16 43.09 44.45 43.83 43.78 43.44 43.02
35.64 39.13 40.25 41.71 42.84 41.79 39.99 39.82 39.12 38.59 40.17 43.46 42.07 47.56 48.68 49.08 49.96 51.08 51.15 51.54 51.41 52.10 50.72 49.93 48.65 48.73 46.31 46.46 45.00 43.45 43.40 42.98 42.86 43.12 43.60 42.51 41.77 41.24 41.08 40.81 40.89 40.89 41.42 40.66 40.76 40.94 41.94 41.88 42.79
36.84 38.98 41.45 42.28 42.03 40.33 41.06 38.89 38.23 37.77 41.29 42.06 43.64 45.16 47.11 48.45 49.76 50.49 51.63 50.88 51.53 51.44 50.98 49.19 47.01 46.92 45.38 44.83 43.86 43.17 42.92 42.96 42.75 42.61 43.28 42.16 41.24 40.33 40.77 40.34 40.20 39.72 40.09 39.64 39.22 39.60 40.22 40.33 41.46
40.08 40.53 41.36 42.02 41.59 40.70 39.05 38.72 38.06 38.17 42.28 40.62 41.79 42.25 44.84 46.69 47.50 47.12 48.05 50.56 51.13 51.72 50.75 48.79 46.90 46.73 45.11 43.17 43.24 42.59 41.78 42.43 42.24 41.81 41.91 42.32 40.90 39.76 39.68 39.64 39.76 39.39 39.16 39.09 38.93 38.89 38.79 39.14 40.24
40.87 36.89 39.66 40.31 39.71 38.50 39.20 35.60 34.64 40.92 41.20 40.95 39.93 39.77 42.97 45.04 45.19 47.24 48.71 49.11 50.68 51.07 50.48 48.45 46.49 45.80 44.51 43.43 42.97 42.60 42.44 42.61 41.35 41.39 41.40 41.88 41.46 39.40 38.72 38.55 38.23 38.60 38.90 38.99 38.55 38.66 38.77 38.46 40.16
35.62 34.58 31.53 39.17 39.62 39.64 37.97 32.15 38.61 41.15 40.39 40.27 40.64 37.97 40.34 42.83 44.52 44.48 45.96 46.86 48.90 49.21 48.66 48.51 48.42 45.11 43.56 42.82 42.49 42.54 41.84 41.08 40.60 40.54 40.47 41.66 41.80 40.13 38.31 38.12 37.79 38.19 38.26 37.92 37.38 37.09 37.01 37.33 37.75
31.16 25.56 28.87 33.71 40.11 38.60 36.97 34.48 40.09 42.06 40.17 39.08 40.98 39.78 39.00 39.83 40.80 41.41 43.47 44.94 47.07 48.47 47.27 46.18 45.36 44.02 42.79 42.31 41.85 40.77 40.22 40.01 40.05 39.56 39.52 40.50 40.84 40.49 38.13 37.91 37.89 38.03 37.44 36.93 37.20 36.72 36.44 35.86 36.70
27.28 26.11 31.00 30.69 37.32 38.34 36.72 34.91 37.35 40.15 40.04 38.98 40.13 40.06 38.54 39.51 40.70 40.29 41.02 41.44 42.07 44.28 46.08 45.45 44.79 43.53 42.32 41.36 40.12 39.13 38.85 38.64 38.95 38.52 39.07 40.12 39.55 39.81 37.89 37.60 37.56 37.78 36.52 35.94 36.14 35.29 35.93 35.78 36.08
33.63 30.89 30.37 33.98 38.09 36.71 35.81 35.97 37.05 40.69 37.73 36.41 37.15 36.86 38.07 38.49 40.25 39.82 39.85 39.58 39.29 39.32 41.36 43.96 42.94 42.65 42.15 39.46 37.90 37.17 37.48 37.16 37.27 37.90 39.30 38.46 38.89 39.21 37.20 36.39 36.52 36.53 35.64 35.16 35.57 35.27 34.90 35.04 36.18
32.28 30.02 29.92 34.41 37.58 35.58 35.03 34.57 36.24 38.10 39.03 39.37 37.86 37.34 37.66 37.32 37.43 38.94 38.25 38.31 38.55 38.27 38.85 40.46 42.67 42.25 41.48 40.12 37.67 37.89 37.13 36.95 36.86 37.82 37.65 38.26 38.14 38.13 37.29 36.03 35.64 35.46 34.66 34.47 34.41 34.73 34.18 34.83 35.83
31.30 29.70 29.90 29.92 33.72 35.40 33.81 31.50 33.07 35.64 38.28 39.29 39.16 40.76 39.75 38.42 37.65 37.52 37.44 37.51 36.78 37.26 37.66 38.83 41.75 41.84 40.63 40.03 39.08 36.97 36.10 34.84 34.29 34.88 35.24 36.55 37.06 37.22 36.57 35.54 34.74 34.17 34.11 33.26 33.45 34.01 33.97 32.45 34.28
27.21 34.06 32.88 31.01 27.37 24.67 33.72 24.77 32.88 35.08 35.94 39.23 40.63 38.57 39.42 39.62 39.85 38.63 37.66 36.27 36.84 36.98 36.93 38.78 40.98 40.69 40.13 40.12 37.80 35.35 33.35 32.29 33.01 34.06 34.17 35.04 35.86 35.21 35.85 35.58 34.40 33.51 33.59 32.98 33.22 35.52 33.87 33.19 31.57
29.78 34.63 32.73 30.82 29.53 28.70 29.14 27.12 29.82 34.36 34.69 37.82 39.50 40.83 40.49 41.62 40.13 37.83 37.46 37.80 37.40 37.02 36.88 38.13 39.67 39.68 39.19 37.63 36.97 34.84 32.89 33.56 33.89 33.57 33.45 33.19 33.61 34.21 34.21 33.95 33.17 32.64 32.84 32.64 32.62 32.30 31.94 31.89 30.92
35.32 32.03 31.96 30.65 30.49 22.56 26.88 27.39 26.84 30.32 34.18 37.32 40.18 40.81 42.27 41.19 40.00 39.15 38.70 38.04 36.59 35.95 35.72 36.46 37.97 37.31 36.86 36.30 34.90 33.95 33.33 32.74 31.86 31.33 31.11 31.00 31.50 31.98 32.30 32.98 31.95 32.06 31.92 31.83 31.80 31.89 31.04 30.38 30.41
31.98 30.02 21.95 19.97 20.87 18.89 27.94 26.76 28.81 32.02 37.13 38.53 39.04 39.82 41.53 42.21 40.24 37.29 35.65 36.40 36.28 35.66 34.58 35.50 36.12 34.17 34.74 34.20 33.70 33.61 33.32 32.64 31.70 31.18 30.64 30.21 29.58 29.07 30.20 31.20 30.86 30.83 31.47 31.71 31.61 31.31 31.41 31.65 30.83
31.38 30.03 22.55 15.77 10.90 18.39 25.21 22.69 27.56 35.85 37.94 38.60 38.41 34.56 36.82 37.14 37.55 35.41 35.76 35.44 35.37 35.31 34.81 34.78 34.30 32.67 32.94 32.70 32.19 32.37 32.28 31.72 31.38 31.12 30.28 29.92 28.17 28.43 30.77 30.60 30.81 31.04 31.42 31.53 31.43 30.84 33.11 32.82 32.66
28.91 26.67 29.64 20.93 11.35 19.54 20.70 25.82 30.62 33.81 30.80 30.45 29.22 33.76 34.71 34.06 33.89 33.92 34.23 34.68 34.56 34.01 33.48 33.17 32.16 31.94 31.77 31.53 31.18 31.05 30.83 30.82 30.00 30.12 29.79 29.21 29.73 29.17 26.68 24.58 24.37 24.60 25.01 26.08 28.47 31.61 31.47 31.75 31.94
28.08 30.45 24.28 25.49 16.00 15.44 20.04 18.76 21.84 28.65 26.75 29.36 27.45 29.92 31.67 32.13 32.17 32.68 32.54 32.77 33.44 32.74 31.65 32.03 32.00 31.55 30.53 30.77 30.55 30.39 29.85 29.26 27.46 25.99 26.66 25.39 25.82 28.60 22.20 18.79 20.09 20.04 20.47 22.62 27.73 29.86 30.41 30.25 30.80
28.59 27.75 28.12 25.44 25.50 17.88 16.35 19.95 24.84 27.57 21.36 24.72 24.82 29.33 29.92 30.27 30.68 31.24 31.24 30.65 29.03 28.81 29.09 28.19 28.25 27.12 28.00 28.74 28.05 28.54 28.17 27.66 24.42 23.91 21.20 19.34 17.06 18.04 17.76 18.05 20.38 27.87 28.02 28.69 28.65 28.85 29.25 28.77 29.30
29.46 29.08 26.98 22.84 13.98 16.84 16.05 21.63 23.03 15.81 14.03 23.11 25.55 28.73 28.23 28.88 28.77 28.21 27.30 26.90 27.24 26.07 25.12 24.46 24.04 24.52 25.58 25.82 26.64 26.38 26.78 25.03 20.29 17.65 16.21 16.38 17.17 15.67 18.33 22.02 28.06 28.09 28.04 28.23 27.95 27.52 28.16 27.71 28.06
MSLP
1013.26 1013.30 1014.18 1014.12 1015.07 1014.97 1013.84 1011.85 1009.88 1008.91 1008.08 1008.01 1007.85 1008.23 1008.94 1010.20 1011.05 1012.40 1012.63 1012.80 1013.12 1013.57 1013.81 1014.02 1014.22 1014.54 1014.84 1015.20 1015.39 1015.68 1015.91 1015.97 1016.24 1016.29 1016.42 1016.62 1016.66 1016.64 1016.80 1016.88 1016.92 1016.95 1017.03 1017.24 1017.44 1017.58 1017.54 1017.37 1017.51
1013.37 1013.42 1013.99 1014.50 1015.11 1014.86 1013.20 1010.76 1009.73 1008.68 1007.86 1007.76 1007.97 1008.52 1009.51 1010.92 1011.44 1012.36 1012.71 1012.91 1013.04 1013.51 1013.96 1014.21 1014.43 1014.77 1015.12 1015.39 1015.58 1015.86 1015.90 1016.29 1016.41 1016.57 1016.72 1016.86 1017.08 1017.03 1017.06 1017.26 1017.41 1017.50 1017.57 1017.70 1017.73 1017.79 1017.84 1017.88 1017.94
1013.30 1013.76 1014.80 1014.71 1014.43 1013.66 1012.21 1010.06 1009.21 1008.43 1007.52 1007.85 1008.47 1008.77 1010.03 1011.28 1011.87 1012.23 1012.48 1012.85 1013.31 1013.89 1014.13 1014.38 1014.61 1014.85 1015.08 1015.47 1015.75 1015.94 1016.03 1016.48 1016.58 1016.76 1016.95 1017.13 1017.42 1017.46 1017.49 1017.71 1017.81 1017.96 1017.98 1018.08 1018.16 1018.18 1018.24 1018.23 1018.17
1013.70 1014.04 1014.67 1014.37 1013.52 1012.07 1010.72 1009.43 1008.82 1008.58 1008.02 1007.83 1008.39 1009.90 1010.81 1011.25 1011.60 1012.03 1012.47 1013.07 1013.54 1014.15 1014.43 1014.61 1014.68 1014.81 1015.14 1015.64 1015.79 1016.01 1016.39 1016.60 1016.85 1016.96 1017.08 1017.39 1017.65 1017.75 1017.85 1018.03 1018.13 1018.24 1018.34 1018.34 1018.43 1018.50 1018.60 1018.56 1018.45
1014.08 1014.58 1014.91 1014.34 1013.00 1011.43 1010.03 1009.09 1008.04 1008.23 1008.28 1008.19 1008.34 1009.84 1011.16 1011.63 1011.49 1011.92 1012.53 1013.22 1013.69 1014.33 1014.53 1014.74 1014.84 1014.94 1015.48 1015.71 1015.91 1016.18 1016.49 1016.86 1017.05 1017.20 1017.38 1017.65 1017.81 1018.04 1018.20 1018.31 1018.41 1018.53 1018.67 1018.70 1018.78 1018.77 1018.73 1018.67 1018.57
1014.36 1014.68 1014.84 1014.10 1012.61 1011.03 1009.48 1008.33 1008.01 1007.77 1008.07 1008.33 1008.92 1009.94 1011.37 1011.64 1011.92 1012.17 1012.48 1013.19 1013.63 1014.16 1014.54 1014.80 1015.03 1015.38 1015.67 1015.83 1016.12 1016.43 1016.65 1016.96 1017.22 1017.47 1017.69 1017.94 1018.22 1018.37 1018.52 1018.65 1018.80 1018.88 1018.95 1018.99 1019.02 1019.02 1018.92 1018.77 1018.75
1014.11 1014.66 1014.29 1013.30 1011.97 1010.74 1008.99 1007.81 1007.79 1007.51 1007.73 1008.33 1008.26 1009.91 1011.51 1011.85 1011.87 1012.02 1012.47 1013.09 1013.59 1013.86 1014.29 1014.94 1015.37 1015.66 1015.90 1016.21 1016.40 1016.62 1016.86 1017.21 1017.47 1017.63 1017.94 1018.21 1018.46 1018.73 1018.91 1019.03 1019.07 1019.16 1019.22 1019.18 1019.22 1019.19 1019.12 1019.02 1018.95
1013.57 1013.75 1013.57 1012.68 1011.50 1009.70 1008.28 1007.65 1006.86 1006.97 1007.36 1007.63 1008.06 1009.56 1011.16 1011.05 1011.43 1011.79 1012.71 1013.23 1013.67 1014.01 1014.27 1015.00 1015.70 1015.92 1016.20 1016.48 1016.77 1016.89 1017.06 1017.34 1017.69 1017.96 1018.19 1018.54 1018.78 1018.99 1019.18 1019.39 1019.32 1019.33 1019.35 1019.36 1019.41 1019.32 1019.18 1019.09 1019.02
1012.57 1013.43 1012.95 1011.61 1010.71 1008.94 1008.08 1007.57 1006.99 1007.09 1007.26 1007.91 1008.69 1009.20 1009.17 1010.07 1011.16 1011.81 1012.57 1013.28 1013.72 1014.04 1014.44 1014.87 1015.62 1016.16 1016.49 1016.75 1017.04 1017.24 1017.42 1017.61 1017.86 1018.16 1018.39 1018.54 1019.02 1019.28 1019.40 1019.47 1019.56 1019.52 1019.48 1019.44 1019.29 1019.33 1019.25 1019.21 1019.24
1012.48 1012.37 1011.35 1009.76 1009.63 1009.07 1008.39 1008.01 1007.41 1007.48 1007.70 1008.40 1009.38 1009.84 1009.94 1010.32 1011.16 1011.75 1012.23 1012.81 1013.36 1013.85 1014.36 1014.70 1014.99 1015.73 1016.28 1016.54 1017.10 1017.49 1017.70 1017.95 1018.07 1018.22 1018.42 1018.76 1018.92 1019.20 1019.38 1019.54 1019.64 1019.70 1019.61 1019.46 1019.45 1019.42 1019.51 1019.55 1019.57
1011.22 1010.67 1009.87 1009.24 1008.87 1008.90 1008.62 1008.29 1007.62 1007.62 1008.26 1008.10 1008.90 1010.06 1010.52 1010.75 1011.16 1011.66 1012.16 1012.38 1012.44 1013.33 1014.07 1014.56 1014.91 1015.27 1015.87 1016.46 1017.09 1017.48 1017.81 1017.98 1018.14 1018.22 1018.42 1018.61 1018.93 1019.22 1019.56 1019.71 1019.85 1019.85 1019.82 1019.92 1019.93 1019.89 1019.80 1019.74 1019.68
1010.55 1009.93 1009.66 1008.74 1008.90 1008.82 1008.57 1008.47 1007.86 1007.61 1007.36 1007.39 1008.03 1008.65 1009.81 1010.70 1011.05 1011.05 1011.51 1011.94 1012.53 1013.05 1013.63 1014.24 1014.73 1015.31 1015.82 1016.33 1016.95 1017.20 1017.49 1017.78 1018.06 1018.24 1018.37 1018.64 1019.12 1019.35 1019.53 1019.73 1019.74 1019.89 1020.04 1020.14 1020.20 1020.22 1020.02 1019.83 1019.60
1009.96 1009.71 1009.28 1008.62 1008.63 1008.70 1008.50 1008.25 1007.98 1007.85 1007.46 1007.36 1007.82 1009.08 1009.52 1010.00 1010.51 1010.97 1011.17 1011.65 1012.15 1012.65 1013.24 1013.80 1014.17 1014.89 1015.52 1016.10 1016.73 1017.08 1017.28 1017.59 1017.83 1018.10 1018.31 1018.60 1018.97 1019.23 1019.41 1019.62 1019.72 1019.79 1019.94 1020.15 1020.24 1020.22 1020.14 1019.97 1019.71
1009.29 1009.29 1008.98 1008.68 1008.39 1008.24 1008.54 1008.08 1008.08 1007.41 1006.84 1007.55 1008.20 1008.63 1009.07 1009.34 1009.58 1010.51 1011.07 1011.18 1011.39 1012.02 1012.48 1013.13 1013.84 1014.32 1015.01 1015.75 1016.27 1016.88 1017.16 1017.39 1017.68 1017.93 1018.14 1018.37 1018.68 1019.00 1019.25 1019.52 1019.65 1019.84 1019.96 1020.04 1020.10 1020.09 1020.05 1019.99 1019.78
1009.58 1009.28 1008.74 1008.29 1008.16 1007.97 1008.10 1007.42 1007.38 1006.77 1006.92 1007.41 1007.97 1008.27 1008.50 1008.70 1009.30 1009.28 1009.54 1010.22 1010.57 1011.14 1011.86 1012.62 1013.24 1013.93 1014.52 1015.21 1015.75 1016.31 1016.79 1017.19 1017.62 1017.91 1018.11 1018.31 1018.52 1018.77 1019.02 1019.36 1019.55 1019.73 1019.76 1019.84 1019.97 1019.97 1019.93 1019.97 1019.70
1010.01 1009.37 1008.46 1007.72 1008.01 1007.70 1008.00 1005.66 1006.47 1006.27 1006.62 1006.89 1007.19 1007.68 1007.91 1008.09 1008.31 1008.75 1009.03 1009.43 1010.11 1010.74 1011.42 1012.30 1012.94 1013.66 1014.34 1014.82 1015.31 1015.87 1016.48 1016.95 1017.34 1017.67 1017.90 1018.24 1018.50 1018.72 1019.04 1019.24 1019.47 1019.62 1019.72 1019.77 1019.97 1020.10 1020.09 1020.04 1019.85
1009.86 1008.83 1008.12 1007.92 1007.49 1007.71 1007.20 1005.07 1005.60 1005.77 1006.09 1006.19 1006.32 1006.86 1007.32 1007.58 1008.00 1008.03 1008.39 1008.81 1009.41 1010.27 1011.05 1012.02 1012.68 1013.38 1014.10 1014.83 1015.23 1015.73 1016.16 1016.75 1017.25 1017.56 1017.89 1018.16 1018.45 1018.71 1019.03 1019.25 1019.39 1019.49 1019.67 1019.85 1019.92 1020.04 1020.10 1020.10 1019.92
1009.11 1009.01 1008.52 1007.61 1006.92 1006.98 1006.58 1004.90 1005.41 1005.42 1005.52 1005.56 1005.77 1006.08 1006.61 1007.01 1007.24 1007.80 1008.39 1008.77 1009.29 1009.88 1010.50 1011.37 1012.34 1013.08 1013.77 1014.64 1015.46 1015.92 1016.29 1016.68 1017.12 1017.52 1017.75 1018.00 1018.28 1018.47 1018.92 1019.19 1019.39 1019.49 1019.72 1019.92 1020.01 1020.15 1020.08 1019.94 1019.73
1008.27 1008.30 1007.76 1007.09 1006.97 1006.82 1005.88 1005.24 1005.09 1005.06 1005.09 1005.52 1005.61 1005.89 1005.94 1006.30 1006.48 1007.41 1008.25 1008.79 1009.45 1009.90 1010.47 1011.04 1011.85 1012.80 1013.44 1014.46 1015.35 1016.14 1016.35 1016.74 1017.15 1017.43 1017.70 1018.03 1018.16 1018.47 1018.85 1019.06 1019.26 1019.52 1019.73 1019.95 1020.05 1020.12 1020.19 1020.03 1019.65
1008.47 1008.22 1007.18 1007.01 1006.66 1007.02 1006.34 1005.19 1005.14 1004.86 1004.52 1004.73 1005.02 1005.28 1005.47 1005.92 1006.64 1007.33 1007.87 1008.50 1009.17 1009.77 1010.25 1010.94 1011.51 1012.33 1013.03 1013.79 1014.69 1015.43 1016.17 1016.72 1016.85 1017.21 1017.70 1017.98 1018.38 1018.47 1018.72 1019.14 1019.31 1019.37 1019.75 1019.95 1019.95 1020.12 1020.33 1020.29 1019.95
1007.71 1007.46 1006.99 1006.88 1006.97 1007.14 1007.17 1005.83 1005.45 1004.90 1004.34 1004.12 1003.88 1003.79 1004.21 1004.79 1005.72 1006.71 1007.45 1007.90 1008.79 1009.46 1009.84 1010.34 1011.09 1011.64 1012.43 1013.39 1014.39 1015.28 1016.09 1016.66 1017.00 1017.27 1017.45 1017.65 1017.94 1018.30 1018.55 1018.86 1019.14 1019.38 1019.72 1019.99 1020.01 1020.16 1020.34 1020.53 1020.12
1006.80 1006.63 1006.94 1007.34 1008.32 1007.52 1007.09 1005.44 1004.85 1004.19 1003.99 1003.63 1002.83 1003.38 1003.53 1003.69 1004.36 1005.31 1006.31 1007.32 1007.93 1008.71 1009.44 1009.93 1010.41 1011.12 1011.89 1012.65 1013.87 1014.73 1015.51 1016.44 1016.52 1016.78 1017.16 1017.52 1017.65 1018.16 1018.47 1018.71 1018.93 1019.30 1019.61 1019.83 1019.99 1020.02 1020.16 1020.45 1020.55
1005.94 1006.45 1006.99 1007.33 1007.87 1008.08 1007.66 1006.77 1002.34 1003.48 1002.77 1001.74 1002.07 1002.20 1002.24 1002.48 1002.96 1004.26 1005.18 1005.83 1007.00 1008.17 1009.17 1009.85 1010.44 1011.01 1011.60 1012.34 1013.18 1014.34 1015.01 1015.59 1016.03 1016.50 1017.10 1017.47 1017.74 1017.84 1018.22 1018.67 1018.82 1019.19 1019.42 1019.63 1019.75 1019.95 1020.16 1020.42 1020.60
1005.61 1006.52 1006.92 1007.28 1007.73 1006.76 1006.22 1006.49 1000.68 1002.37 1000.71 1000.71 1000.47 1000.71 1000.60 1001.03 1001.64 1002.85 1004.41 1005.63 1006.67 1007.72 1008.82 1009.70 1010.40 1010.99 1011.60 1012.26 1013.00 1014.05 1014.84 1015.27 1015.81 1016.39 1017.07 1017.55 1017.79 1017.89 1018.10 1018.41 1018.74 1018.96 1019.24 1019.53 1019.64 1019.70 1020.03 1020.38 1020.55
1005.99 1006.57 1006.82 1007.11 1006.69 1005.39 1004.79 1005.46 1001.95 1000.56 1000.07 1000.00 1000.19 999.98 999.89 1000.23 1001.19 1002.30 1003.69 1005.26 1006.60 1007.62 1008.86 1009.74 1010.39 1011.26 1011.73 1012.32 1012.94 1013.81 1014.58 1015.22 1015.73 1016.00 1016.57 1017.32 1017.63 1017.98 1018.00 1018.28 1018.50 1018.84 1019.14 1019.31 1019.49 1019.64 1019.73 1020.25 1020.48
1004.57 1005.07 1005.40 1005.83 1005.82 1005.37 1004.63 1003.78 1001.62 1000.50 1000.40 1000.33 1000.46 1000.34 1000.35 1000.40 1001.17 1002.22 1003.39 1005.00 1006.33 1007.45 1008.54 1009.57 1010.69 1011.58 1012.05 1012.61 1013.22 1013.85 1014.52 1015.16 1015.75 1015.93 1016.40 1016.83 1017.28 1017.52 1017.86 1018.04 1018.23 1018.57 1018.97 1019.14 1019.20 1019.39 1019.66 1020.11 1020.40
1004.78 1004.10 1004.56 1005.34 1005.52 1005.39 1004.59 1003.68 1002.08 1000.49 1001.22 1000.82 1000.57 1000.86 1000.86 1001.30 1001.97 1002.83 1003.44 1004.86 1006.32 1007.52 1008.53 1009.44 1010.82 1011.62 1012.37 1012.93 1013.41 1014.01 1014.62 1015.16 1015.82 1016.03 1016.25 1016.73 1017.22 1017.52 1018.07 1018.19 1018.52 1018.84 1019.32 1019.52 1019.23 1019.49 1019.74 1020.11 1020.30
1003.92 1003.79 1004.91 1005.20 1005.36 1004.94 1004.24 1003.73 1002.94 1001.43 1001.54 1001.51 1001.43 1001.41 1001.64 1002.16 1002.88 1004.01 1004.60 1005.39 1006.74 1007.94 1009.13 1009.77 1011.14 1011.82 1012.55 1013.11 1013.60 1014.09 1014.70 1015.21 1015.72 1016.09 1016.52 1016.83 1017.41 1017.61 1018.02 1018.38 1018.68 1019.02 1019.45 1019.39 1019.25 1019.58 1019.78 1020.07 1020.14
1003.93 1003.89 1004.03 1003.93 1004.25 1004.17 1004.12 1003.11 1002.56 1002.65 1002.96 1002.83 1002.39 1002.68 1002.78 1003.16 1003.89 1004.85 1005.79 1006.47 1007.24 1008.39 1009.63 1010.57 1011.73 1012.30 1013.02 1013.42 1013.83 1014.39 1014.84 1015.43 1015.77 1016.21 1016.69 1016.87 1017.44 1017.67 1017.92 1018.11 1018.46 1019.01 1019.15 1019.27 1019.30 1019.41 1019.52 1019.68 1019.83
1003.08 1002.99 1003.28 1003.26 1003.65 1003.49 1003.22 1002.49 1002.62 1003.56 1004.04 1003.86 1003.16 1003.33 1003.80 1004.39 1005.34 1006.23 1006.99 1007.53 1008.50 1009.30 1010.29 1011.23 1012.14 1012.77 1013.45 1013.82 1014.11 1014.68 1015.02 1015.54 1015.96 1016.16 1016.57 1016.96 1017.42 1017.54 1017.78 1018.02 1018.26 1018.59 1018.66 1018.87 1019.02 1019.01 1019.20 1019.29 1019.38
Wind_Speed
5 6 1 4 3 5 4 9 4 4 3 3 3 5 9 3 2 4 2 10 14 12 10 12 17 17 17 16 16 16 15 16 15 15 15 15 16 16 14 14 14 15 15 14 13 11 11 13 13
3 5 3 0 4 2 7 9 10 6 5 5 5 3 5 2 3 7 7 11 14 12 10 11 16 18 17 16 16 16 16 15 15 15 15 16 15 16 16 16 14 13 13 12 11 12 12 12 11
3 4 3 4 5 7 6 3 7 2 6 5 3 4 4 4 4 8 7 15 13 11 9 10 16 17 18 16 15 16 16 14 15 15 15 15 15 15 15 14 14 13 13 12 12 12 11 11 11
2 5 4 2 9 8 9 1 7 5 3 3 6 4 4 2 10 8 13 15 13 10 9 11 15 16 18 15 16 16 15 15 15 15 15 15 14 15 14 14 13 12 12 12 11 11 10 10 11
3 2 2 4 9 8 7 5 6 6 5 5 5 6 5 3 9 16 14 14 14 10 8 9 13 15 15 15 16 16 15 15 14 14 14 14 14 14 13 13 12 12 11 10 10 10 10 10 10
2 2 1 8 9 9 10 9 6 5 4 3 5 8 6 7 10 13 11 14 12 12 9 8 10 12 13 15 15 15 15 15 14 14 14 13 13 13 13 12 11 11 10 9 9 8 9 10 10
6 3 6 5 8 8 8 7 8 9 6 6 4 8 5 7 9 9 11 14 11 12 10 8 6 8 11 11 13 14 15 15 14 14 14 13 13 13 12 11 10 9 8 8 8 9 9 9 8
5 5 4 6 10 12 8 4 6 8 9 2 5 8 7 10 11 9 11 13 12 11 12 10 7 7 7 6 11 13 14 14 14 14 14 13 13 11 10 8 9 9 8 8 8 9 9 9 10
3 1 7 10 9 13 3 2 1 2 6 2 4 3 5 16 14 8 8 11 10 11 11 11 9 7 7 7 7 10 13 14 14 12 11 8 5 5 7 7 7 8 7 6 8 7 9 9 10
6 6 11 7 9 7 5 7 8 5 4 2 5 6 7 15 15 13 14 13 11 12 11 12 12 10 9 7 7 6 6 4 5 5 6 4 5 5 5 4 5 3 7 8 8 9 8 7 4
7 12 14 10 8 2 5 7 7 7 4 8 10 11 9 6 9 12 10 12 14 11 10 11 11 12 9 7 5 3 3 3 3 6 5 5 4 3 3 3 2 3 5 3 5 5 3 5 3
8 12 15 13 9 8 6 4 5 7 9 6 10 22 17 15 14 15 14 12 12 13 9 9 8 9 7 5 5 5 4 4 4 4 5 4 3 3 3 2 3 3 1 3 3 3 4 5 5
10 8 13 13 8 6 7 8 7 5 10 7 7 13 16 16 15 11 10 7 11 13 12 12 10 9 7 8 5 4 5 4 5 5 4 4 4 4 3 2 2 2 2 2 2 3 3 4 5
5 14 15 14 15 7 7 12 5 3 10 6 8 14 14 16 18 10 10 13 16 15 15 14 12 11 10 7 7 5 4 5 5 4 5 5 4 4 3 3 2 3 2 1 2 2 3 3 4
8 15 14 13 5 8 6 13 10 16 7 8 10 11 13 17 13 19 17 14 15 14 15 15 14 12 11 9 7 6 5 5 4 4 6 5 5 4 4 3 2 2 1 2 3 3 3 4 4
5 6 17 10 9 6 8 21 10 16 14 18 15 10 12 15 16 11 11 10 10 12 15 14 12 11 10 9 7 5 5 5 5 5 5 6 5 5 4 3 3 2 2 2 1 2 3 3 4
7 6 5 8 7 6 18 18 18 14 11 17 18 13 12 10 9 9 10 10 11 12 13 13 10 12 10 7 6 6 7 5 4 4 4 6 5 5 4 2 2 3 2 2 1 1 1 2 4
16 5 11 10 6 16 22 23 3 8 7 13 16 12 10 13 15 9 10 9 8 9 10 13 11 11 9 6 5 4 4 4 4 4 5 6 5 5 3 2 2 2 2 2 2 1 2 2 4
15 15 19 11 13 15 19 24 18 17 8 7 8 9 11 12 10 10 10 9 9 8 9 12 13 11 10 6 6 4 5 4 3 4 6 6 5 5 4 2 2 2 2 1 1 1 3 3 2
15 17 21 13 9 6 13 19 8 17 17 13 10 10 10 7 9 11 11 11 11 9 9 8 12 13 9 7 4 4 4 2 4 4 5 6 5 5 5 3 2 2 1 1 2 1 1 2 3
21 21 21 15 1 4 4 18 11 7 7 7 11 13 12 13 16 14 14 14 10 11 10 10 12 14 11 10 6 4 4 3 3 3 3 4 6 6 5 4 3 1 2 1 1 1 1 1 2
21 21 19 17 4 14 12 17 17 8 15 18 20 11 14 16 15 17 18 15 15 12 8 8 13 14 12 13 8 7 6 5 4 4 4 5 7 6 5 4 3 2 1 1 1 1 1 2 1
18 16 12 12 13 10 10 7 15 9 22 27 20 20 19 19 17 19 19 19 14 11 10 8 12 13 12 10 11 8 6 4 3 3 6 5 5 6 6 5 4 3 2 2 2 1 3 1 2
10 4 2 3 12 18 20 15 26 13 24 17 19 20 23 20 18 18 15 14 13 10 9 9 13 11 11 11 9 9 8 7 6 5 5 4 3 4 5 5 5 4 3 3 3 2 4 2 0
7 8 8 9 11 13 16 15 25 7 20 21 18 16 18 18 17 16 19 16 15 13 10 9 12 9 9 10 8 8 8 7 8 7 5 5 4 3 6 6 5 3 4 3 3 3 3 1 2
19 22 10 12 6 10 5 10 15 19 21 26 20 7 6 10 15 17 18 16 16 15 13 11 11 9 8 8 8 7 7 4 4 5 4 4 4 4 5 5 5 4 3 4 4 1 1 2 3
7 12 9 4 2 4 4 6 10 12 9 10 6 8 12 10 12 16 17 16 15 14 12 12 9 8 7 7 6 6 6 6 5 5 5 4 4 4 4 4 5 4 3 1 4 2 2 2 2
12 8 5 6 14 20 7 4 7 12 10 9 8 8 7 8 14 14 13 15 11 11 8 9 8 8 6 7 6 6 6 5 5 4 5 5 4 5 5 4 4 2 2 1 2 2 2 3 2
6 8 5 3 8 13 7 5 9 14 2 8 6 5 7 9 11 12 11 11 11 11 10 9 8 8 7 6 5 5 5 5 5 5 4 4 4 4 4 5 4 4 4 4 4 4 5 6 6
2 13 7 7 7 5 4 11 6 7 5 6 6 7 6 7 9 10 11 12 11 11 10 9 6 7 5 5 5 5 5 5 5 4 4 4 4 3 5 4 4 5 5 5 6 6 5 6 6
Wind_Direction
317 306 23 16 64 76 239 252 263 280 67 355 35 65 132 73 79 178 192 119 116 113 116 119 115 114 113 114 112 110 105 101 98 97 93 90 88 86 82 73 71 71 72 72 63 58 51 45 37
358 322 60 91 115 184 259 241 232 225 139 103 48 12 80 75 99 132 105 129 116 117 116 117 119 122 117 115 115 114 109 105 104 98 97 91 86 85 85 81 75 70 69 67 63 55 47 41 33
327 188 83 165 176 194 218 249 117 171 94 103 75 74 85 125 95 146 141 121 120 114 116 123 125 126 120 122 123 119 112 113 107 105 100 95 90 88 87 85 82 77 73 68 62 56 47 38 30
29 12 344 177 235 254 227 267 147 127 30 93 121 82 48 338 151 154 130 123 116 118 125 128 132 128 116 135 129 124 123 117 114 110 105 100 96 92 87 85 83 79 74 69 60 52 44 34 28
22 53 213 236 256 262 255 239 161 156 178 183 132 157 122 22 121 130 136 128 125 129 127 132 132 120 138 141 136 131 126 121 114 109 105 102 98 96 91 88 85 79 71 64 56 46 38 31 24
5 121 167 233 255 262 267 213 174 167 163 216 135 117 175 151 135 150 143 135 136 134 129 122 108 129 149 140 136 134 127 122 118 112 106 101 97 94 89 85 82 77 71 63 52 40 29 20 13
150 97 244 249 259 288 243 202 171 179 184 224 172 136 177 160 178 160 138 139 137 137 125 117 110 113 117 124 132 133 129 127 121 115 109 106 102 95 89 85 82 75 66 56 41 27 16 10 7
152 130 250 241 246 270 256 217 173 151 215 152 181 178 194 205 172 154 132 140 140 141 137 132 126 115 103 103 117 126 131 128 124 122 121 117 111 104 100 86 80 72 61 50 35 22 13 7 358
117 113 240 238 223 245 308 189 339 152 120 98 30 136 212 143 149 142 141 140 149 150 154 143 144 132 123 115 121 122 131 134 135 134 135 126 114 114 103 98 86 64 57 50 28 18 9 12 5
155 172 220 212 224 263 285 205 183 147 146 175 58 34 101 140 156 165 166 160 155 159 158 160 157 152 150 145 133 136 142 148 150 146 142 133 122 135 129 113 86 51 29 43 24 18 25 14 1
202 218 230 261 266 334 307 293 192 143 201 205 181 170 163 156 164 172 177 174 169 156 160 171 164 157 154 149 154 157 161 166 152 143 138 137 118 105 104 107 73 55 49 25 22 11 8 358 352
241 221 228 258 260 294 279 279 278 178 211 148 202 175 165 176 185 182 182 178 166 169 161 164 157 155 146 145 160 171 157 159 144 151 142 126 125 120 113 105 100 82 43 44 26 6 349 349 337
246 242 245 252 252 257 277 245 224 278 272 244 135 163 179 179 190 195 190 172 167 175 172 172 158 159 151 152 161 163 168 154 156 147 136 132 139 135 125 119 107 91 75 64 19 355 337 329 322
248 241 256 247 246 226 255 264 178 280 263 241 163 179 187 187 187 178 186 192 183 177 178 170 168 165 154 160 160 166 156 153 150 147 153 134 134 134 125 118 106 85 93 37 357 322 322 313 313
252 260 270 243 221 215 205 255 210 229 231 245 221 200 193 195 183 195 193 190 181 180 173 173 167 164 161 163 161 157 159 148 142 145 148 141 126 125 128 127 120 126 95 39 6 350 351 343 330
279 262 241 242 216 230 172 246 234 234 222 228 232 206 197 198 196 195 189 177 173 162 167 169 170 165 162 161 158 153 151 151 154 155 148 149 140 128 117 129 117 132 68 60 15 348 344 336 326
220 248 228 241 224 238 200 253 234 236 221 225 227 221 203 206 206 187 180 172 165 164 155 164 162 164 159 158 151 148 151 149 159 146 149 156 145 141 132 129 135 110 71 22 4 1 32 319 315
220 215 231 227 215 213 235 242 243 216 208 225 227 224 200 200 208 172 157 143 143 156 157 160 164 163 151 141 133 130 140 145 152 159 158 158 155 151 134 124 156 120 83 4 17 353 317 278 282
226 213 236 237 227 246 241 249 224 237 266 225 237 223 212 200 195 165 161 153 146 154 151 160 159 166 151 151 149 148 161 151 150 158 150 156 152 152 144 149 143 153 138 197 294 308 328 317 322
224 231 243 258 242 271 282 271 237 223 241 239 227 226 219 193 167 181 171 165 168 166 172 157 165 165 163 154 134 136 137 154 150 149 150 151 151 148 154 159 157 115 131 351 339 285 325 293 348
225 225 234 235 185 201 28 284 265 254 247 231 232 226 216 196 185 187 182 180 165 180 181 173 171 167 159 149 134 95 92 71 103 161 156 170 160 161 149 148 141 146 132 212 264 279 220 247 313
226 222 230 233 197 247 164 267 257 227 238 239 242 222 223 211 196 187 182 181 184 189 179 176 165 163 157 154 155 153 163 160 186 166 160 169 163 160 162 169 158 170 181 211 232 287 201 140 253
227 236 225 215 208 242 219 247 255 182 240 239 233 233 222 219 196 188 191 183 176 165 177 163 158 157 155 155 157 156 149 158 155 143 155 152 162 165 165 168 172 190 197 222 226 188 88 95 131
217 115 111 201 221 239 233 215 267 217 233 244 230 222 226 209 198 190 182 163 159 150 148 150 154 152 148 150 150 157 163 156 141 142 146 164 172 173 176 171 171 181 194 210 210 174 143 133 136
175 192 222 214 208 238 222 201 241 208 239 235 234 226 225 210 194 171 162 160 153 151 140 142 148 148 147 143 143 156 168 162 164 160 162 166 158 178 188 177 176 183 205 207 195 178 168 200 241
199 201 216 230 188 238 166 214 240 239 252 255 246 224 249 183 174 167 158 150 148 146 146 146 151 144 144 141 148 146 148 145 160 160 158 166 173 167 165 174 175 191 221 216 202 154 139 204 239
189 214 224 266 165 278 197 280 297 253 230 256 247 206 202 171 160 154 144 143 145 148 148 142 140 137 147 147 143 149 152 154 169 166 152 151 141 131 124 129 126 114 99 85 112 90 173 170 217
193 167 195 205 243 254 228 239 229 266 235 244 229 200 161 146 141 144 136 138 138 135 127 124 137 144 145 146 150 155 164 156 140 130 137 133 132 140 149 135 130 126 199 199 104 160 181 209 217
165 205 211 169 209 234 250 243 219 254 267 236 231 196 153 136 136 138 128 119 116 110 116 113 120 122 121 122 122 135 145 153 142 142 148 151 146 148 155 160 164 189 208 204 204 206 210 224 232
153 215 193 205 233 227 182 250 180 211 256 276 227 162 125 111 115 119 121 117 119 121 121 121 121 121 127 125 121 128 130 138 146 150 170 159 176 175 176 171 193 214 204 205 207 206 208 221 234